Flag for Iran Weather past 2 weeks in Bandar-Abbas, Iran

Now
90 °F

Fog.


Feels Like: 111 °F
Forecast: 85 / 95 °F
Wind: 7 mph from East

Location: Bandarabbass

Current Time: Aug 22, 2014 at 10:20:13 PM

Latest Report: Aug 22, 2014 at 9:30 PM


Visibility: 2 mi

Pressure: 29.56 "Hg

Humidity: 79%

Dew point: 82 °F

Location of Bandar-AbbasLocation

Historic Weather in Bandar-Abbas — Graph

°F

Bandar-Abbas temperature yesterday

Maximum temperature yesterday: 97 °F (at 1:00 PM)
Minimum temperature yesterday: 90 °F (at 3:30 AM)
Average temperature yesterday: 93 °F

Past Weeks' High & Low Weather Summary

 TemperatureHumidityPressure
High104 °F (Aug 16, 5:00 PM)94% (Aug 15, 7:30 AM)29.77 "Hg (Aug 15, 7:30 AM)
Low84 °F (Aug 15, 4:30 AM)28% (Aug 16, 5:30 PM)29.33 "Hg (Aug 8, 5:00 PM)
Average92 °F73%29.53 "Hg
* Reported Aug 7 8:30 PM — Aug 22 9:00 PM, Bandar-Abbas, Weather by CustomWeather, © 2014

Note: Actual official high and low records may vary slightly from our data, if they occured in-between our weather recording intervals... More about our weather records

Advertising

Bandar-Abbas weather history for previous 24 hours

 ConditionsComfort  
Time TempWeatherWind HumidityBarometerVisibility
9:00 PM
Aug 22
90 °FFog.12 mph79%29.53 "Hg2 mi
8:30 PM90 °FFog.12 mph79%29.53 "Hg2 mi
8:00 PM90 °FFog.12 mph79%29.53 "Hg2 mi
7:30 PM91 °FHaze.14 mph75%29.53 "Hg3 mi
7:00 PM91 °FHaze.12 mph75%29.50 "Hg3 mi
6:30 PM91 °FSunny.9 mph75%29.50 "Hg3 mi
6:00 PM93 °FSunny.9 mph71%29.50 "Hg3 mi
5:30 PM93 °FSunny.12 mph71%29.50 "Hg3 mi
5:00 PM93 °FSunny.14 mph71%29.53 "Hg3 mi
4:30 PM93 °FScattered clouds.14 mph75%29.50 "Hg3 mi
4:00 PM93 °FSandstorm.16 mph71%29.53 "Hg3 mi
3:30 PM93 °FHaze.14 mph71%29.53 "Hg3 mi
3:00 PM95 °FHaze.14 mph71%29.53 "Hg3 mi
2:30 PM95 °FScattered clouds.14 mph67%29.56 "Hg3 mi
2:00 PM95 °FSandstorm.16 mph67%29.56 "Hg3 mi
1:30 PM93 °FSandstorm.18 mph71%29.56 "Hg3 mi
1:00 PM95 °FScattered clouds.14 mph67%29.56 "Hg3 mi
12:30 PM97 °FScattered clouds.14 mph63%29.56 "Hg3 mi
12:00 PM95 °FScattered clouds.12 mph67%29.59 "Hg2 mi
11:20 AM95 °FPartly sunny.14 mph67%29.56 "Hg2 mi
11:00 AM93 °FPartly sunny.14 mph71%29.56 "Hg2 mi
10:30 AM93 °FPartly sunny.9 mph71%29.56 "Hg2 mi
10:00 AM93 °FScattered clouds.7 mph71%29.59 "Hg2 mi
9:20 AM91 °FScattered clouds.5 mph75%29.56 "Hg2 mi
9:00 AM93 °FScattered clouds.5 mph71%29.56 "Hg2 mi
8:30 AM91 °FScattered clouds.5 mph80%29.56 "Hg2 mi
8:00 AM91 °FHaze.7 mph80%29.56 "Hg2 mi
7:30 AM88 °FFog.No wind79%29.53 "Hg2 mi
6:30 AM86 °FFog.5 mph79%29.53 "Hg1 mi
5:20 AM86 °FFog.No wind84%29.50 "Hg1 mi
4:30 AM88 °FHaze.5 mph79%29.50 "Hg1 mi
3:30 AM90 °FFog.5 mph79%29.50 "Hg1 mi
2:20 AM90 °FFog.7 mph79%29.50 "Hg1 mi
1:30 AM91 °FClear.5 mph71%29.50 "Hg1 mi
1:00 AM91 °FClear.5 mph71%29.50 "Hg1 mi
12:30 AM91 °FHaze.7 mph71%29.45 "Hg1 mi
12:00 AM93 °FHaze.5 mph67%29.50 "Hg1 mi
11:30 PM
Aug 21
91 °FHaze.9 mph71%29.50 "Hg1 mi
11:00 PM91 °FHaze.9 mph75%29.50 "Hg2 mi
10:30 PM93 °FHaze.7 mph67%29.45 "Hg2 mi
10:00 PM93 °FPassing clouds.7 mph67%29.50 "Hg1 mi
Weather by CustomWeather, © 2014

See weather overviewHow to use our weather pages